Aérodrome :
LOGIN :

S'inscrire | Disclaimer

   EN    FR    IT 

 










Légende :    VFR   VFR Marginal   IFR   IFR Intensif   IFR Très Intensif
Visi : 
Plafond : 
>= 8 km
>= 3000ft
5 à 8 km
1000 à 3000 ft
1500m à 5 km
500 à 1000 ft
800 à 1500m
200 à 500 ft
< 800m
< 200 ft
Symboles :   Orages  Brouillard  Fortes neiges  Fortes précipitations  Vent > 20 kt
SIGMETs :   Divers  Orages  Givrage  Turbulence  Onde Orograph.  Cendres Volcan.







- Altitude de l'aérodrome : 13 ft
- Code IATA : OST


EBOS - Oostend bruges Int.

DERNIER METAR :
  • 211120Z 34009KT CAVOK 22/13 Q1014 NOSIG

METARs EXPIRÉS :
  • 211050Z 34009KT CAVOK 22/15 Q1014 NOSIG
  • 211020Z 33009KT CAVOK 22/14 Q1014 NOSIG
  • 210950Z 33010KT CAVOK 21/13 Q1013 NOSIG
  • 210920Z 33008KT CAVOK 21/13 Q1013 NOSIG
  • 210850Z 34008KT CAVOK 20/12 Q1013 NOSIG

TAF TAF EBOS
Valide du 21 à 12h jusqu'au 22 à 18h UTC


211130Z 2112/2218 33008KT 9999 FEW040
Pas de NOTAMs connus pour ce terrain.



MET'MAP, la Météo Aéronautique d'un coup d'oeil ! - Copyright ORBIFLY Décembre 2007 - Disclaimer

ORBIFLY MET'MAP TEAM :

Programmation & Développement : Alexandra Zaïnal
Conception & Développement : Baudouin d'Aumeries
Co-Programmation & Développement : Marc-Olivier Méhu
Soutien technique & logistique : Manuel Goepfert

Contact : metmap@orbifly.com




SOURCES & CREDITS :

   NOAA